Tracking 30995 objects as of 5-Jul-2025
HD Live streaming from Space Station
objects crossing your sky now

QIANFAN-44

Track QIANFAN-44 now!
10-day predictions
QIANFAN-44 is classified as:


NORAD ID: 62245
Int'l Code: 2024-232J
Perigee: 1,066.8 km
Apogee: 1,085.0 km
Inclination: 89.0 °
Period: 106.6 minutes
Semi major axis: 7446 km
RCS: Unknown
Launch date: December 5, 2024
Source: People's Republic of China (PRC)
Launch site: Taiyaun Space Center, China (TSC)
Your satellite tracking list
MICROSAT-R DEB
Track 1 satellite(s)




NASA's NSSDC Master Catalog

Two Line Element Set (TLE):
1 62245U 24232J   25185.95040743  .00000068  00000-0  87075-4 0  9990
2 62245  88.9954  57.3413 0012225 304.5077  55.4919 13.50944638 77623
Source of the keplerian elements: AFSPC